Location: Haulchin
(50.3172°N, 3.4360°E)
Time: 05:46:53
(UTC+00:00)

Cosmos 2333 Rocket - Pass Details

Date: 10 August 2024
Orbit: 839 x 863 km, 70.8° (Epoch: 16 September)

Event Time Altitude Azimuth Distance (km) Brightness Sun altitude
Exits shadow 03:03:26 - 270° (W) 2,820 4.5 -12.0°
Reaches altitude 10° 03:04:35 10° 277° (W) 2,501 4.3 -11.8°
Maximum altitude 03:08:48 20° 325° (NW) 1,874 4.1 -11.3°
Drops below altitude 10° 03:13:03 10° 12° (NNE) 2,514 5.5 -10.8°
Sets 03:16:12 0° 29° (NNE) 3,455 6.9 -10.4°
